[[{"header":{"parameterUnit":"m.s-1","parameterCategory":1,"la1":30.2991,"la2":30.254,"lo1":-89.0895,"lo2":-89.0444,"dy":0.0017,"dx":0.0017,"nx":28,"ny":28,"refTime":"2024-10-08T09:00:00:Z","depth":0,"parameterNumber":2,"parameterNumberName":"U-component_of_WINDS"},"data":[0,0,0,0,0,0,0,0,0,0,0,0,0,0,0,0,0,0,0,0,0,0,0,0,0,0,0,0,0,0,0,0,0,0,0,0,0,0,0,0,0,0,0,0,0,0,0,0,0,0,0,0,0,0,0,0,0,0,-0.6935,-0.6935,0,-0.691,-0.691,-0.691,-0.6889,-0.6888,-0.6888,-0.6888,-0.6862,-0.6862,-0.6861,0,0,0,0,0,0,0,0,0,0,0,0,0,-0.6964,-0.6964,-0.6935,-0.6935,-0.6935,-0.691,-0.691,-0.691,-0.6889,-0.6888,-0.6888,-0.6888,-0.6862,-0.6862,-0.6861,0,0,0,0,0,0,0,0,0,0,0,0,0,-0.6947,-0.6963,-0.6935,-0.6921,-0.692,-0.691,-0.691,-0.691,-0.6889,-0.6888,-0.6888,-0.6888,-0.6863,-0.6862,-0.6861,-0.6864,0,0,-0.6859,-0.6859,0,0,0,0,0,0,0,0,-0.6948,-0.6946,-0.6924,-0.6922,-0.6921,-0.6902,-0.6911,-0.6894,-0.6889,-0.6901,-0.6888,-0.6888,-0.6876,-0.6874,-0.687,-0.6863,-0.6861,-0.6859,-0.6858,-0.6858,-0.6858,0,0,0,0,0,0,0,-0.6949,-0.6946,-0.6925,-0.6923,-0.6922,-0.6916,-0.6913,-0.6907,-0.689,-0.6899,-0.6898,-0.6895,-0.6875,-0.6871,-0.6869,-0.6861,-0.6859,-0.6858,-0.6858,-0.6858,-0.6853,-0.6853,0,0,0,0,0,0,-0.6952,-0.6948,-0.6926,-0.6925,-0.6934,-0.6916,-0.6913,-0.6909,-0.689,-0.6887,-0.6896,-0.6894,-0.6872,-0.687,-0.6868,-0.6869,-0.6858,-0.6858,-0.6857,-0.6853,-0.6853,-0.6854,0,0,0,0,0,0,-0.6953,-0.6951,-0.6927,-0.6936,-0.6932,-0.6916,-0.6911,-0.6908,-0.6904,-0.6887,-0.6884,-0.6895,-0.6872,-0.6869,-0.6865,-0.6868,-0.6857,-0.6857,-0.6852,-0.6853,-0.6853,-0.6872,0,0,0,0,0,0,-0.6954,-0.6951,-0.6952,-0.6936,-0.6932,-0.6925,-0.6911,-0.6908,-0.6903,-0.6901,-0.6886,-0.6883,-0.6871,-0.6866,-0.6864,-0.6867,-0.6856,-0.6852,-0.6853,-0.6853,-0.6871,-0.6873,-0.6875,0,0,0,0,0,-0.6955,-0.6959,-0.6952,-0.695,-0.6933,-0.6925,-0.6923,-0.6909,-0.6903,-0.6904,-0.6893,-0.6883,-0.6868,-0.6866,-0.6863,-0.6866,-0.6852,-0.6853,-0.6853,-0.687,-0.6873,-0.6875,0,0,0,0,0,0,-0.6976,-0.6956,-0.6949,-0.6948,-0.6938,-0.6921,-0.6922,-0.6913,-0.6905,-0.6903,-0.6887,-0.6884,-0.6881,-0.6873,-0.6871,-0.6867,-0.6859,-0.6859,-0.6872,-0.6875,-0.6877,-0.6879,-0.6855,0,0,0,0,0,-0.698,-0.6976,-0.6959,-0.6959,-0.6954,-0.6939,-0.6935,-0.6925,-0.6915,-0.6911,-0.69,-0.689,-0.6882,-0.6878,-0.6871,-0.687,-0.6866,-0.6871,-0.6873,-0.6874,-0.6875,-0.6873,-0.6874,-0.6856,-0.6856,-0.6856,0,0,-0.699,-0.6978,-0.6976,-0.6963,-0.6954,-0.6949,-0.6936,-0.6931,-0.6927,-0.691,-0.6905,-0.6896,-0.6884,-0.6881,-0.6879,-0.6875,-0.6879,-0.6875,-0.6877,-0.6876,-0.6874,-0.6875,-0.6877,-0.6856,-0.6856,-0.6856,0,0,-0.7004,-0.6995,-0.6994,-0.6985,-0.6972,-0.6962,-0.6962,-0.6946,-0.6939,-0.6934,-0.6921,-0.6916,-0.6904,-0.6895,-0.6889,-0.6899,-0.6889,-0.6897,-0.6907,-0.6905,-0.6907,-0.6908,-0.6911,-0.6912,-0.6897,-0.6897,-0.6898,0,-0.7017,-0.7009,-0.6994,-0.699,-0.6984,-0.6968,-0.6967,-0.6959,-0.6945,-0.6941,-0.6936,-0.692,-0.691,-0.6905,-0.6907,-0.6903,-0.6902,-0.6899,-0.6908,-0.6909,-0.691,-0.6912,-0.6914,-0.6898,-0.6898,-0.6898,-0.6898,0,-0.7025,-0.702,-0.702,-0.7006,-0.7,-0.6998,-0.6982,-0.6978,-0.6969,-0.6959,-0.6953,-0.6941,-0.693,-0.6928,-0.692,-0.6921,-0.6919,-0.6911,-0.6902,-0.6913,-0.6915,-0.6916,-0.69,-0.69,-0.6899,-0.6899,0,0,-0.7052,-0.703,-0.703,-0.7023,-0.7007,-0.7003,-0.6999,-0.6988,-0.6985,-0.6975,-0.6971,-0.6961,-0.6953,-0.6946,-0.6936,-0.6935,-0.6942,-0.6927,-0.6926,-0.693,-0.6942,-0.6948,-0.695,-0.6935,-0.6936,-0.6936,-0.6943,0,-0.7064,-0.7056,-0.7042,-0.7039,-0.7033,-0.7017,-0.7014,-0.7003,-0.6994,-0.6987,-0.6976,-0.6969,-0.696,-0.6955,-0.6953,-0.6942,-0.6944,-0.6941,-0.6931,-0.6931,-0.6935,-0.6951,-0.6957,-0.6965,-0.6944,-0.6944,-0.6944,0,-0.7076,-0.7067,-0.7063,-0.7046,-0.7043,-0.7041,-0.7029,-0.7023,-0.7011,-0.7004,-0.6996,-0.6984,-0.6979,-0.697,-0.6962,-0.696,-0.6955,-0.6949,-0.6949,-0.6947,-0.6938,-0.695,-0.6967,-0.6969,-0.6946,-0.6945,-0.6945,0,-0.7096,-0.7082,-0.7078,-0.7072,-0.7053,-0.7051,-0.7043,-0.703,-0.7025,-0.7015,-0.7011,-0.7,-0.6994,-0.6986,-0.6972,-0.6968,-0.6965,-0.6956,-0.6959,-0.6959,-0.6959,-0.6959,-0.6976,-0.6956,-0.6956,-0.6956,-0.6956,0,-0.711,-0.7108,-0.7086,-0.7084,-0.7081,-0.7065,-0.7062,-0.7052,-0.7041,-0.7036,-0.7021,-0.7016,-0.6998,-0.6991,-0.698,-0.6974,-0.6972,-0.6965,-0.6963,-0.6967,-0.6967,-0.6963,-0.6962,-0.6956,-0.6956,-0.6956,-0.6956,0,-0.7131,-0.7117,-0.7111,-0.7093,-0.7089,-0.7087,-0.7071,-0.7068,-0.7057,-0.705,-0.7048,-0.7031,-0.7021,-0.7006,-0.6993,-0.6985,-0.6982,-0.6977,-0.6986,-0.6984,-0.6987,-0.6987,-0.7002,-0.7003,-0.6983,-0.6983,-0.6983,0,-0.7141,-0.7139,-0.7121,-0.7116,-0.7109,-0.7102,-0.7095,-0.7079,-0.7073,-0.7058,-0.7056,-0.7046,-0.7037,-0.7023,-0.7009,-0.6998,-0.6993,-0.6999,-0.6991,-0.6995,-0.6992,-0.6993,-0.6992,-0.7001,-0.7001,-0.7001,-0.7001,0,-0.716,-0.7153,-0.7145,-0.7134,-0.7127,-0.7117,-0.7107,-0.7104,-0.7086,-0.708,-0.707,-0.7063,-0.7049,-0.7038,-0.7025,-0.7016,-0.7006,-0.7004,-0.7004,-0.7008,-0.7013,-0.701,-0.699,-0.7003,-0.7003,-0.7003,-0.7003,-0.7003,-0.7176,-0.7173,-0.716,-0.7151,-0.7141,-0.7132,-0.7127,-0.7115,-0.7107,-0.7094,-0.7085,-0.7076,-0.7062,-0.7044,-0.7035,-0.7028,-0.7023,-0.7023,-0.7023,-0.7023,-0.7025,-0.7014,-0.7025,-0.7025,-0.7025,-0.7025,-0.7025,0,-0.7194,-0.7184,-0.7176,-0.7162,-0.7155,-0.7145,-0.7133,-0.7127,-0.7119,-0.7108,-0.7099,-0.7087,-0.7077,-0.7061,-0.705,-0.7046,-0.7041,-0.7044,-0.7044,-0.7042,-0.703,-0.7031,-0.7048,-0.7048,-0.7048,-0.7048,-0.7048,-0.7048,-0.7202,-0.7197,-0.7188,-0.7177,-0.7167,-0.7158,-0.7152,-0.7143,-0.7133,-0.7121,-0.7112,-0.7102,-0.7089,-0.7076,-0.7065,-0.7061,-0.7057,-0.7062,-0.7056,-0.7045,-0.7043,-0.7041,-0.7041,-0.7061,-0.7061,-0.7068,-0.7068,-0.7068]},{"header":{"parameterUnit":"m.s-1","parameterCategory":1,"la1":30.2991,"la2":30.254,"lo1":-89.0895,"lo2":-89.0444,"dy":0.0017,"dx":0.0017,"nx":28,"ny":28,"refTime":"2024-10-08T09:00:00:Z","depth":0,"parameterNumber":3,"parameterNumberName":"V-component_of_WINDS"},"data":[0,0,0,0,0,0,0,0,0,0,0,0,0,0,0,0,0,0,0,0,0,0,0,0,0,0,0,0,0,0,0,0,0,0,0,0,0,0,0,0,0,0,0,0,0,0,0,0,0,0,0,0,0,0,0,0,0,0,-3.5518,-3.5517,0,-3.5508,-3.5507,-3.5507,-3.5487,-3.5487,-3.5487,-3.5486,-3.5472,-3.5471,-3.5471,0,0,0,0,0,0,0,0,0,0,0,0,0,-3.5517,-3.5517,-3.5518,-3.5517,-3.5517,-3.5508,-3.5507,-3.5507,-3.5488,-3.5487,-3.5487,-3.5486,-3.5472,-3.5472,-3.5471,0,0,0,0,0,0,0,0,0,0,0,0,0,-3.5513,-3.5517,-3.5518,-3.5506,-3.5505,-3.5508,-3.5507,-3.5507,-3.5488,-3.5487,-3.5486,-3.5486,-3.5472,-3.5472,-3.5471,-3.5482,0,0,-3.5471,-3.5471,0,0,0,0,0,0,0,0,-3.5513,-3.5513,-3.5508,-3.5507,-3.5506,-3.5498,-3.5502,-3.5499,-3.5488,-3.5494,-3.5486,-3.5486,-3.5481,-3.548,-3.5479,-3.5482,-3.5481,-3.5471,-3.5471,-3.5471,-3.5471,0,0,0,0,0,0,0,-3.5513,-3.5513,-3.5513,-3.5508,-3.5507,-3.5501,-3.55,-3.5501,-3.549,-3.5494,-3.5492,-3.5491,-3.548,-3.5479,-3.5478,-3.5481,-3.5471,-3.5471,-3.5471,-3.5471,-3.5495,-3.5495,0,0,0,0,0,0,-3.5516,-3.5514,-3.5514,-3.5513,-3.5508,-3.5502,-3.55,-3.5501,-3.5491,-3.5488,-3.5492,-3.5491,-3.5479,-3.5479,-3.5478,-3.5492,-3.5471,-3.5471,-3.5471,-3.5494,-3.5495,-3.5495,0,0,0,0,0,0,-3.5516,-3.5516,-3.5514,-3.5513,-3.5512,-3.5502,-3.5503,-3.5501,-3.5501,-3.5489,-3.5487,-3.5493,-3.5479,-3.5478,-3.5482,-3.5491,-3.5471,-3.5471,-3.5493,-3.5494,-3.5495,-3.5519,0,0,0,0,0,0,-3.5516,-3.5516,-3.5521,-3.5513,-3.5513,-3.552,-3.5504,-3.5502,-3.5501,-3.5499,-3.549,-3.5488,-3.5478,-3.5483,-3.5482,-3.5491,-3.5471,-3.5492,-3.5494,-3.5495,-3.5517,-3.5521,-3.5523,0,0,0,0,0,-3.5516,-3.5526,-3.5521,-3.5521,-3.5518,-3.552,-3.552,-3.551,-3.5502,-3.5506,-3.5499,-3.5488,-3.549,-3.5483,-3.5483,-3.5491,-3.5492,-3.5493,-3.5495,-3.5516,-3.552,-3.5523,0,0,0,0,0,0,-3.5532,-3.5525,-3.5519,-3.5527,-3.5525,-3.5517,-3.5522,-3.5514,-3.5512,-3.551,-3.5497,-3.5495,-3.5502,-3.5496,-3.5489,-3.5502,-3.5489,-3.5491,-3.5506,-3.5509,-3.5512,-3.5514,-3.5471,0,0,0,0,0,-3.5537,-3.5541,-3.5533,-3.5541,-3.5541,-3.5532,-3.5532,-3.5525,-3.5521,-3.552,-3.5513,-3.5509,-3.5509,-3.5508,-3.5507,-3.5516,-3.5515,-3.5522,-3.5525,-3.5528,-3.5529,-3.5536,-3.5539,-3.55,-3.55,-3.55,0,0,-3.5547,-3.5543,-3.5546,-3.5545,-3.5542,-3.5546,-3.5531,-3.5534,-3.5537,-3.5519,-3.5524,-3.552,-3.5514,-3.5521,-3.5524,-3.5517,-3.554,-3.553,-3.5532,-3.5532,-3.5538,-3.5541,-3.5545,-3.5501,-3.5501,-3.5501,0,0,-3.5566,-3.5563,-3.5571,-3.557,-3.5567,-3.5561,-3.5563,-3.5557,-3.5554,-3.5559,-3.5547,-3.5549,-3.5548,-3.5545,-3.5544,-3.5566,-3.5556,-3.5565,-3.5581,-3.5588,-3.5591,-3.5594,-3.5603,-3.5606,-3.5567,-3.5567,-3.5567,0,-3.5578,-3.5584,-3.5575,-3.5581,-3.5582,-3.5569,-3.5577,-3.5575,-3.5571,-3.5571,-3.5564,-3.5565,-3.556,-3.5568,-3.5574,-3.5572,-3.5574,-3.5566,-3.5592,-3.5594,-3.5597,-3.5605,-3.5609,-3.5568,-3.5568,-3.5568,-3.5568,0,-3.5599,-3.5604,-3.561,-3.561,-3.5611,-3.5617,-3.5609,-3.5611,-3.5605,-3.56,-3.5606,-3.56,-3.5599,-3.56,-3.5592,-3.5608,-3.5604,-3.5594,-3.5581,-3.5602,-3.561,-3.5613,-3.557,-3.557,-3.5569,-3.5569,0,0,-3.5627,-3.5625,-3.5627,-3.5628,-3.5625,-3.5628,-3.5634,-3.5635,-3.5638,-3.5636,-3.5641,-3.5642,-3.5635,-3.5633,-3.5625,-3.5631,-3.5651,-3.5621,-3.5621,-3.5628,-3.5669,-3.5677,-3.5681,-3.5644,-3.5645,-3.5645,-3.567,0,-3.5647,-3.5659,-3.5653,-3.5665,-3.567,-3.566,-3.5665,-3.5664,-3.566,-3.5663,-3.5658,-3.566,-3.5648,-3.5648,-3.5653,-3.5647,-3.5659,-3.5645,-3.5649,-3.565,-3.5652,-3.5685,-3.5693,-3.5716,-3.5673,-3.5673,-3.5674,0,-3.567,-3.5673,-3.5687,-3.5686,-3.5688,-3.5693,-3.5695,-3.5698,-3.5696,-3.5693,-3.5693,-3.5685,-3.5691,-3.5678,-3.5686,-3.5677,-3.5679,-3.5676,-3.5677,-3.5677,-3.5663,-3.5687,-3.5723,-3.5727,-3.5678,-3.5678,-3.5678,0,-3.5691,-3.5698,-3.5708,-3.5709,-3.5707,-3.5712,-3.5711,-3.5709,-3.5711,-3.5712,-3.5713,-3.5714,-3.5715,-3.5716,-3.5708,-3.5699,-3.5718,-3.5704,-3.5716,-3.5716,-3.572,-3.572,-3.5758,-3.572,-3.572,-3.572,-3.5719,0,-3.5714,-3.5723,-3.5718,-3.5724,-3.5735,-3.5728,-3.5738,-3.5736,-3.5735,-3.574,-3.573,-3.5735,-3.5724,-3.5728,-3.5722,-3.5731,-3.5731,-3.5728,-3.5727,-3.573,-3.5731,-3.5731,-3.5729,-3.572,-3.572,-3.572,-3.572,0,-3.5739,-3.5736,-3.5746,-3.5745,-3.5745,-3.5753,-3.5752,-3.5757,-3.5754,-3.5761,-3.5762,-3.5756,-3.5761,-3.5753,-3.5756,-3.5752,-3.5765,-3.576,-3.5766,-3.5765,-3.5778,-3.5778,-3.5818,-3.5824,-3.5781,-3.5781,-3.5782,0,-3.5754,-3.5762,-3.5763,-3.5767,-3.5768,-3.5774,-3.5777,-3.577,-3.5773,-3.5774,-3.578,-3.5784,-3.5787,-3.5795,-3.579,-3.5792,-3.5788,-3.5802,-3.5788,-3.5792,-3.579,-3.579,-3.5792,-3.5805,-3.5806,-3.5806,-3.5806,0,-3.5782,-3.5781,-3.5786,-3.5792,-3.5797,-3.58,-3.5802,-3.5806,-3.58,-3.5804,-3.581,-3.5812,-3.5817,-3.5821,-3.5824,-3.5822,-3.5813,-3.5811,-3.5814,-3.5818,-3.5822,-3.5822,-3.5775,-3.581,-3.581,-3.581,-3.5809,-3.5809,-3.5803,-3.5811,-3.5814,-3.582,-3.5823,-3.5826,-3.5832,-3.5831,-3.5836,-3.5841,-3.5837,-3.5844,-3.5844,-3.5847,-3.5846,-3.5852,-3.5845,-3.585,-3.5851,-3.5852,-3.5855,-3.5821,-3.5852,-3.5852,-3.5852,-3.5851,-3.5851,0,-3.5832,-3.5834,-3.5841,-3.5847,-3.5853,-3.5846,-3.585,-3.5855,-3.5862,-3.5864,-3.5868,-3.5876,-3.5881,-3.5878,-3.5882,-3.5888,-3.5884,-3.5889,-3.5889,-3.5889,-3.586,-3.5857,-3.5892,-3.5892,-3.5892,-3.5892,-3.5892,-3.5892,-3.5847,-3.586,-3.586,-3.5874,-3.5876,-3.5885,-3.5888,-3.5891,-3.5893,-3.5903,-3.5908,-3.5907,-3.5907,-3.5912,-3.5916,-3.5915,-3.5918,-3.5925,-3.5922,-3.5895,-3.5891,-3.5887,-3.5885,-3.5925,-3.5925,-3.5951,-3.5952,-3.5952]}]]